FREGAT DEB, 45831

Orbit data source: Space-Track

FREGAT DEB, 45831 is space debris in LEO originally from a launch on Mon, 18 Jul 2011 UTC launched from the Tyuratam Missile And Space Complex (TTMTR). Debris objects in space refer to the collection of defunct objects orbiting the Earth. Examples of debris include non-operational satellites, rocket bodies, and fragments generated from explosions, collisions, or faulty payload assembly.

Loading next visibility...
FREGAT DEB details
Identifier
45831, 2011-037BR
Orbit
LEO
Last TLE update9 hours ago
Origin
Flag of CISVVKO VKS (CIS)
ManufacturerLavochkin
MissionSpacecraft
Bus & MotorUnknown
MassUnknown
Launch date (UTC)
2011-07-18 (13 years ago)
Launch vehicleUnknown
Launch site
Tyuratam Missile And Space Complex (TTMTR)
Object type
Payload
Rocket body
Debris
Shape & HBRUnknown
Radar Cross SectionSmall (<0.1 m²)

Expand to show TLE details & history

TLE from 9 hours ago
0 FREGAT DEB
1 45831U 11037BR  24361.23507010  .00003215  00000-0  17456-2 0  9993
2 45831  51.4376  17.1885 1652228  69.3269 307.6484 11.50972732191796
Epoch: 2024-12-26T05:38Z
Definitive object data (Epoch: 2024-12-26T05:38:30.056Z)
Latitude-0.00011°
Longitude-162.6542°
Altitude1,236.56 km
Speed7.525 km/s
True Right ascension01h 08m 45s
True Declination0° 00' 00"
Sunlit
Object was in daylight at TLE epoch
Visualization TLE readout
Latitude46.28°
Longitude-107.60956°
Altitude545.047 km
Speed8.198 km/s
Apparent Right ascension03h 12m 29s
Apparent Declination5° 51' 37"
Sunlit
Object is in full shadow
Visualization observer readout
Local Sidereal Time13:38:15
Azimuth329.067° NNW
Elevation-39.337°
Doppler factor1
Orbital elements
Apogee altitude3,277.741 km
Perigee altitude539.43 km
Semi-major axis8,286.723 km
Eccentricity0.1652228
Inclination51.4376°
RAAN17.1885°
Arg. of periapsis69.3269°
True anomaly290.75956°
Mean anomaly307.6484°
Eccentric anomaly299.40108°
Mean motion2.87719 °/min
BSTAR0.0017456
Orbital period125.12 mins
Loading maneuver chart data...
Loading historical data...
Loading historical data...
Loading historical data...
Loading historical data...
Loading historical data...
Loading historical data...
Loading historical data...

FREGAT DEB Visibility forecast

Observer location: undefined°, undefined

Span
Click to sort rows by Start time (UTC) header in descending order
Start Az.
Max El. time (UTC)
Max El. Az.
Max El.
End time (UTC)
End Az.
5 mins2024-12-27 02:37:26.754Z166.834° S2024-12-27 02:39:26.754Z142.26° SSE15.669°2024-12-27 02:42:26.754Z96.753° ESE
6 mins2024-12-27 04:47:26.754Z253.772° W2024-12-27 04:50:26.754Z354.197° N38.517°2024-12-27 04:53:26.754Z45.457° ENE
8 mins2024-12-27 09:10:26.754Z335.769° NNW2024-12-27 09:12:26.754Z16.29° NNE28.645°2024-12-27 09:18:26.754Z90.718° ESE
12 mins2024-12-27 11:19:26.754Z294.848° NW2024-12-27 11:23:26.754Z224.164° SW40.517°2024-12-27 11:31:26.754Z145.268° SSE
4 mins2024-12-27 13:33:26.754Z238.601° WSW2024-12-27 13:34:26.754Z231.216° WSW12.177°2024-12-27 13:37:26.754Z212.088° SW
|